| time (UTC) | temp C | wind direction | speed KPH | gust KPH | rain 1hr cm | rain 24hr cm | rain mn cm | humidity % | barometer mb |
| 20260506160052 | 12 | 0 | 3.2 | 14.5 | 0.00 | 0.00 | 0.00 | 43 | 1013.1 |
| 20260506154551 | 12 | 360 | 3.2 | 8.0 | 0.00 | 0.00 | 0.00 | 41 | 1013.2 |
| 20260506153052 | 12 | 360 | 1.6 | 8.0 | 0.00 | 0.00 | 0.00 | 44 | 1012.9 |
| 20260506151551 | 12 | 360 | 1.6 | 12.9 | 0.00 | 0.00 | 0.00 | 46 | 1013.2 |
| 20260506150057 | 11 | 0 | 1.6 | 12.9 | 0.00 | 0.00 | 0.00 | 47 | 1013.2 |
| 20260506144609 | 11 | 360 | 1.6 | 9.7 | 0.00 | 0.00 | 0.00 | 48 | 1013.1 |
| 20260506143054 | 12 | 360 | 3.2 | 9.7 | 0.00 | 0.00 | 0.00 | 52 | 1013.2 |
| 20260506141550 | 11 | 360 | 1.6 | 8.0 | 0.00 | 0.00 | 0.00 | 53 | 1013.2 |
| 20260506140106 | 11 | 360 | 1.6 | 4.8 | 0.00 | 0.00 | 0.00 | 53 | 1013.3 |
| 20260506134555 | 10 | 360 | 3.2 | 6.4 | 0.00 | 0.08 | 0.00 | 55 | 1012.8 |
| 20260506133134 | 9 | 360 | 0.0 | 4.8 | 0.00 | 0.08 | 0.00 | 60 | 1012.6 |
| 20260506131555 | 8 | 0 | 0.0 | 3.2 | 0.00 | 0.08 | 0.00 | 62 | 1012.5 |
| 20260506130134 | 7 | 0 | 0.0 | 0.0 | 0.00 | 0.08 | 0.00 | 69 | 1012.5 |
| 20260506124552 | 7 | 0 | 0.0 | 0.0 | 0.00 | 0.25 | 0.00 | 81 | 1012.3 |
| 20260506123052 | 6 | 0 | 0.0 | 0.0 | 0.00 | 0.25 | 0.00 | 87 | 1012.1 |
| 20260506121556 | 5 | 0 | 0.0 | 1.6 | 0.00 | 0.25 | 0.00 | 86 | 1012.0 |
| 20260506120055 | 4 | 0 | 0.0 | 0.0 | 0.00 | 0.25 | 0.00 | 87 | 1011.8 |
| 20260506114601 | 3 | 0 | 0.0 | 0.0 | 0.00 | 0.25 | 0.00 | 86 | 1011.7 |
| 20260506113054 | 2 | 0 | 0.0 | 0.0 | 0.00 | 0.25 | 0.00 | 83 | 1011.7 |
| 20260506111553 | 2 | 0 | 0.0 | 0.0 | 0.00 | 0.25 | 0.00 | 81 | 1011.6 |
| 20260506110053 | 2 | 0 | 0.0 | 0.0 | 0.00 | 0.25 | 0.00 | 79 | 1011.5 |
| 20260506104555 | 3 | 0 | 0.0 | 0.0 | 0.00 | 0.25 | 0.00 | 79 | 1011.3 |
| 20260506103105 | 3 | 0 | 0.0 | 0.0 | 0.00 | 0.25 | 0.00 | 78 | 1011.1 |
| 20260506101556 | 3 | 0 | 0.0 | 0.0 | 0.00 | 0.25 | 0.00 | 77 | 1010.7 |
| 20260506100107 | 3 | 0 | 0.0 | 0.0 | 0.00 | 0.25 | 0.00 | 76 | 1010.7 |
| 20260506094604 | 4 | 0 | 0.0 | 0.0 | 0.00 | 0.25 | 0.00 | 73 | 1010.7 |
| 20260506093055 | 4 | 0 | 0.0 | 0.0 | 0.00 | 0.25 | 0.00 | 74 | 1010.8 |
| 20260506091601 | 4 | 0 | 0.0 | 0.0 | 0.00 | 0.25 | 0.00 | 74 | 1010.4 |
| 20260506090057 | 5 | 0 | 0.0 | 0.0 | 0.00 | 0.25 | 0.00 | 73 | 1010.6 |
| 20260506084600 | 5 | 0 | 0.0 | 0.0 | 0.00 | 0.25 | 0.00 | 71 | 1010.7 |
| 20260506083058 | 5 | 0 | 0.0 | 0.0 | 0.00 | 0.25 | 0.00 | 68 | 1010.5 |
| 20260506081605 | 5 | 0 | 0.0 | 0.0 | 0.00 | 0.25 | 0.00 | 67 | 1010.3 |
| 20260506073058 | 6 | 0 | 0.0 | 0.0 | 0.00 | 0.25 | 0.00 | 61 | 1010.3 |
| 20260506071550 | 6 | 0 | 0.0 | 4.8 | 0.00 | 0.25 | 0.00 | 60 | 1010.1 |
| 20260506061550 | 7 | 0 | 0.0 | 0.0 | 0.00 | 0.25 | 0.00 | 60 | 1010.0 |
| 20260506044555 | 10 | 5 | 0.0 | 4.8 | 0.00 | 0.25 | 0.25 | 50 | 1009.4 |
| 20260506043056 | 10 | 0 | 0.0 | 4.8 | 0.00 | 0.25 | 0.25 | 52 | 1009.5 |
| 20260506041558 | 10 | 0 | 0.0 | 4.8 | 0.00 | 0.25 | 0.25 | 54 | 1009.7 |
| 20260506040056 | 9 | 0 | 0.0 | 3.2 | 0.00 | 0.25 | 0.25 | 59 | 1009.8 |
| 20260506034612 | 9 | 5 | 0.0 | 0.0 | 0.00 | 0.25 | 0.25 | 61 | 1009.5 |
| 20260506033054 | 9 | 0 | 0.0 | 1.6 | 0.00 | 0.25 | 0.25 | 58 | 1009.6 |
| 20260506031604 | 9 | 0 | 0.0 | 1.6 | 0.00 | 0.25 | 0.25 | 58 | 1009.3 |
| 20260506030058 | 10 | 0 | 0.0 | 0.0 | 0.00 | 0.25 | 0.25 | 57 | 1009.2 |
| 20260506024555 | 10 | 0 | 0.0 | 0.0 | 0.00 | 0.25 | 0.25 | 56 | 1009.0 |
| 20260506023101 | 10 | 0 | 0.0 | 1.6 | 0.00 | 0.25 | 0.25 | 55 | 1009.2 |
| 20260506021603 | 10 | 0 | 0.0 | 1.6 | 0.00 | 0.25 | 0.25 | 54 | 1009.0 |
| 20260506020056 | 10 | 0 | 0.0 | 3.2 | 0.00 | 0.25 | 0.25 | 53 | 1008.7 |
| 20260506014557 | 10 | 0 | 0.0 | 0.0 | 0.00 | 0.25 | 0.25 | 55 | 1008.5 |
| 20260506013108 | 10 | 0 | 0.0 | 3.2 | 0.00 | 0.25 | 0.25 | 52 | 1008.3 |
| 20260506011601 | 11 | 0 | 0.0 | 4.8 | 0.00 | 0.25 | 0.25 | 52 | 1008.0 |
| 20260506010119 | 11 | 0 | 0.0 | 3.2 | 0.00 | 0.25 | 0.25 | 47 | 1008.0 |
| 20260506004553 | 11 | 0 | 0.0 | 4.8 | 0.00 | 0.28 | 0.25 | 48 | 1007.7 |
| 20260506003107 | 11 | 0 | 0.0 | 1.6 | 0.00 | 0.28 | 0.25 | 51 | 1007.7 |
| 20260506001604 | 12 | 0 | 0.0 | 6.4 | 0.00 | 0.28 | 0.25 | 44 | 1007.6 |
| 20260506000058 | 12 | 0 | 0.0 | 4.8 | 0.00 | 0.28 | 0.25 | 44 | 1007.6 |
| 20260505234552 | 12 | 0 | 1.6 | 4.8 | 0.00 | 0.28 | 0.25 | 42 | 1007.6 |
| 20260505233107 | 12 | 360 | 1.6 | 6.4 | 0.00 | 0.28 | 0.25 | 41 | 1007.6 |
| 20260505231554 | 12 | 0 | 0.0 | 4.8 | 0.00 | 0.28 | 0.25 | 43 | 1007.6 |
| 20260505230056 | 12 | 0 | 0.0 | 4.8 | 0.00 | 0.28 | 0.25 | 42 | 1007.8 |
| 20260505224554 | 12 | 0 | 0.0 | 12.9 | 0.00 | 0.28 | 0.25 | 40 | 1007.9 |
| 20260505223052 | 12 | 360 | 1.6 | 9.7 | 0.00 | 0.28 | 0.25 | 41 | 1007.9 |
| 20260505221551 | 12 | 360 | 1.6 | 9.7 | 0.00 | 0.28 | 0.25 | 39 | 1008.0 |
| 20260505220055 | 12 | 360 | 1.6 | 9.7 | 0.00 | 0.28 | 0.25 | 39 | 1008.1 |
| 20260505214610 | 12 | 360 | 1.6 | 8.0 | 0.00 | 0.28 | 0.25 | 39 | 1008.2 |
| 20260505213057 | 13 | 360 | 1.6 | 14.5 | 0.00 | 0.28 | 0.25 | 40 | 1008.1 |
| 20260505211549 | 12 | 0 | 0.0 | 16.1 | 0.00 | 0.28 | 0.25 | 40 | 1008.2 |
| 20260505210054 | 12 | 360 | 0.0 | 8.0 | 0.00 | 0.28 | 0.25 | 41 | 1008.0 |
| 20260505204546 | 12 | 360 | 1.6 | 12.9 | 0.00 | 0.28 | 0.25 | 39 | 1008.2 |
| 20260505203052 | 12 | 360 | 1.6 | 9.7 | 0.00 | 0.28 | 0.25 | 40 | 1008.4 |
| 20260505201557 | 12 | 360 | 0.0 | 12.9 | 0.00 | 0.28 | 0.25 | 39 | 1008.6 |
| 20260505200057 | 12 | 360 | 1.6 | 12.9 | 0.00 | 0.28 | 0.25 | 39 | 1008.5 |
| 20260505194547 | 12 | 360 | 3.2 | 9.7 | 0.00 | 0.28 | 0.25 | 40 | 1008.5 |
| 20260505193053 | 13 | 360 | 3.2 | 12.9 | 0.00 | 0.28 | 0.25 | 44 | 1008.6 |
| 20260505191605 | 13 | 360 | 1.6 | 9.7 | 0.00 | 0.28 | 0.25 | 43 | 1008.7 |
| 20260505190057 | 13 | 360 | 0.0 | 6.4 | 0.00 | 0.28 | 0.25 | 43 | 1008.8 |
| 20260505184601 | 13 | 360 | 1.6 | 12.9 | 0.00 | 0.28 | 0.25 | 45 | 1008.8 |
| 20260505183112 | 13 | 360 | 1.6 | 9.7 | 0.00 | 0.28 | 0.25 | 43 | 1008.9 |
| 20260505181549 | 13 | 360 | 3.2 | 14.5 | 0.00 | 0.28 | 0.25 | 43 | 1008.6 |
| 20260505180051 | 13 | 360 | 3.2 | 16.1 | 0.00 | 0.28 | 0.25 | 41 | 1008.7 |
| 20260505174548 | 13 | 0 | 1.6 | 9.7 | 0.00 | 0.28 | 0.25 | 41 | 1008.3 |
| 20260505173053 | 13 | 360 | 1.6 | 9.7 | 0.00 | 0.28 | 0.25 | 43 | 1008.5 |
| 20260505171557 | 13 | 360 | 1.6 | 8.0 | 0.00 | 0.28 | 0.25 | 45 | 1008.5 |
| 20260505170054 | 13 | 360 | 1.6 | 9.7 | 0.00 | 0.28 | 0.25 | 46 | 1008.4 |
| 20260505164555 | 13 | 360 | 1.6 | 12.9 | 0.00 | 0.28 | 0.25 | 52 | 1008.1 |
| 20260505163056 | 13 | 360 | 1.6 | 9.7 | 0.00 | 0.28 | 0.25 | 59 | 1008.4 |
| 20260505161605 | 12 | 360 | 1.6 | 9.7 | 0.00 | 0.28 | 0.25 | 59 | 1008.4 |